Location: Antichan
(42.9728°N, 0.6667°E)
Time: 13:15:22
(UTC+00:00)

OBJECT-B - Pass Details

Date: 15 August 2020
Orbit: 422 x 433 km, 97.0° (Epoch: 21 September)

Event Time Altitude Azimuth Distance (km) Brightness Sun altitude
Exits shadow 19:30:04 - 136° (SE) 1,813 3.4 -6.1°
Reaches altitude 10° 19:30:49 10° 130° (SE) 1,532 3.0 -6.2°
Maximum altitude 19:33:37 26° 71° (ENE) 882 2.0 -6.7°
Drops below altitude 10° 19:36:25 10° 13° (NNE) 1,538 3.8 -7.1°
Sets 19:38:37 0° 0° (N) 2,408 5.0 -7.5°
